Retour au catalogue

STARLINK-36313

ActifCommunicationsSSO
NORAD 68156·PAYLOAD·🇺🇸 United States

Lancé Mar 13, 2026 depuis Vandenberg Space Force Base

Loading…

Prochains Passages (prochaines 24 heures)

TLE

FraisSource: CelesTrak SupGP

Époque: Sep 14, 2026, 21:22 UTC

1 68156C 26049Q   26257.89076389  .00030800  00000+0  95631-3 0  2573
2 68156  97.2841 277.8716 0001434  88.4059  57.1863 15.33416801    16

Suivez STARLINK-36313 en temps réel avec AllMySat

Download on the App Store